Time,TemperatureF,DewpointF,PressureIn,WindDirection,WindDirectionDegrees,WindSpeedMPH,WindSpeedGustMPH,Humidity,HourlyPrecipIn,Conditions,Clouds,dailyrainin,SolarRadiationWatts/m^2,SoftwareType,DateUTC
2013-03-24 00:00:00,32.0,21.9,29.88,WNW,283,4.2,8.1,66,0.00,BKN,,0.00,0.0,WeatherDisplay:10.37,2013-03-24 04:00:00,
2013-03-24 00:05:00,31.6,21.9,29.88,NW,324,4.6,5.5,67,0.00,SCT,BKN,0.00,0.0,WeatherDisplay:10.37,2013-03-24 04:05:00,
2013-03-24 00:10:00,31.8,22.1,29.88,West,269,3.6,6.9,67,0.00,SCT,BKN,0.00,0.0,WeatherDisplay:10.37,2013-03-24 04:10:00,
2013-03-24 00:15:00,31.8,22.1,29.88,West,262,2.8,4.6,67,0.00,SCT,BKN,0.00,0.0,WeatherDisplay:10.37,2013-03-24 04:15:00,
2013-03-24 00:20:00,31.8,22.1,29.88,West,264,3.1,4.6,67,0.00,SCT,BKN,0.00,0.0,WeatherDisplay:10.37,2013-03-24 04:20:00,
2013-03-24 00:25:00,31.8,22.1,29.88,West,279,1.5,3.5,67,0.00,SCT,BKN,0.00,0.0,WeatherDisplay:10.37,2013-03-24 04:25:00,
2013-03-24 00:30:00,31.6,21.9,29.89,West,275,3.6,8.1,67,0.00,SCT,BKN,0.00,0.0,WeatherDisplay:10.37,2013-03-24 04:30:00,
2013-03-24 00:35:00,31.8,22.5,29.88,WSW,239,2.4,6.0,68,0.00,SCT,BKN,0.00,0.0,WeatherDisplay:10.37,2013-03-24 04:35:00,
2013-03-24 00:40:00,31.6,22.3,29.88,West,272,5.2,9.0,68,0.00,SCT,BKN,0.00,0.0,WeatherDisplay:10.37,2013-03-24 04:40:00,
2013-03-24 00:45:00,31.5,22.1,29.88,WNW,283,3.1,5.8,68,0.00,SCT,BKN,0.00,0.0,WeatherDisplay:10.37,2013-03-24 04:45:00,
2013-03-24 00:50:00,31.8,22.8,29.87,WNW,292,2.6,5.8,69,0.00,SCT,BKN,0.00,0.0,WeatherDisplay:10.37,2013-03-24 04:50:00,
2013-03-24 00:55:00,31.8,22.8,29.87,WSW,248,0.9,3.5,69,0.00,SCT,BKN,0.00,0.0,WeatherDisplay:10.37,2013-03-24 04:55:00,
2013-03-24 01:00:00,31.6,22.6,29.87,WSW,243,1.8,4.6,69,0.00,SCT,BKN,0.00,0.0,WeatherDisplay:10.37,2013-03-24 05:00:00,
2013-03-24 01:05:00,30.6,21.9,29.87,SW,226,2.2,3.5,70,0.00,SCT,BKN,0.00,0.0,WeatherDisplay:10.37,2013-03-24 05:05:00,
2013-03-24 01:10:00,30.6,21.9,29.87,West,269,2.1,4.0,70,0.00,SCT,BKN,0.00,0.0,WeatherDisplay:10.37,2013-03-24 05:10:00,
2013-03-24 01:15:00,30.6,21.9,29.87,WNW,291,2.7,5.8,70,0.00,SCT,BKN,0.00,0.0,WeatherDisplay:10.37,2013-03-24 05:15:00,
2013-03-24 01:20:00,30.4,21.8,29.87,West,268,2.8,5.8,70,0.00,SCT,BKN,0.00,0.0,WeatherDisplay:10.37,2013-03-24 05:20:00,
2013-03-24 01:25:00,30.4,21.8,29.87,WNW,285,2.1,3.6,70,0.00,SCT,BKN,0.00,0.0,WeatherDisplay:10.37,2013-03-24 05:25:00,
2013-03-24 01:30:00,30.4,22.1,29.87,WNW,292,2.0,3.5,71,0.00,SCT,BKN,0.00,0.0,WeatherDisplay:10.37,2013-03-24 05:30:00,
2013-03-24 01:35:00,30.2,21.9,29.87,West,268,1.6,2.3,71,0.00,SCT,BKN,0.00,0.0,WeatherDisplay:10.37,2013-03-24 05:35:00,
2013-03-24 01:40:00,30.0,21.8,29.87,West,270,2.6,4.6,71,0.00,SCT,BKN,0.00,0.0,WeatherDisplay:10.37,2013-03-24 05:40:00,
2013-03-24 01:45:00,30.2,22.3,29.86,WSW,250,1.8,3.5,72,0.00,SCT,BKN,0.00,0.0,WeatherDisplay:10.37,2013-03-24 05:45:00,
2013-03-24 01:50:00,30.0,22.1,29.86,West,275,1.6,4.6,72,0.00,SCT,BKN,0.00,0.0,WeatherDisplay:10.37,2013-03-24 05:50:00,
2013-03-24 01:55:00,29.8,21.9,29.85,WSW,254,1.9,3.9,72,0.00,SCT,BKN,0.00,0.0,WeatherDisplay:10.37,2013-03-24 05:55:00,
2013-03-24 02:00:00,30.2,22.6,29.85,WSW,240,0.5,1.1,73,0.00,SCT,BKN,0.00,0.0,WeatherDisplay:10.37,2013-03-24 06:00:00,
2013-03-24 02:05:00,29.7,22.1,29.85,West,265,0.3,2.3,73,0.00,FEW,BKN,0.00,0.0,WeatherDisplay:10.37,2013-03-24 06:05:00,
2013-03-24 02:10:00,29.7,22.1,29.85,West,266,1.3,4.6,73,0.00,FEW,BKN,0.00,0.0,WeatherDisplay:10.37,2013-03-24 06:10:00,
2013-03-24 02:15:00,29.5,21.9,29.85,WNW,299,2.3,3.5,73,0.00,FEW,BKN,0.00,0.0,WeatherDisplay:10.37,2013-03-24 06:15:00,
2013-03-24 02:20:00,29.5,21.9,29.84,West,270,1.8,4.6,73,0.00,FEW,BKN,0.00,0.0,WeatherDisplay:10.37,2013-03-24 06:20:00,
2013-03-24 02:25:00,29.5,21.9,29.84,WSW,257,0.5,2.3,73,0.00,FEW,BKN,0.00,0.0,WeatherDisplay:10.37,2013-03-24 06:25:00,
2013-03-24 02:30:00,29.5,22.2,29.84,West,270,0.0,2.3,74,0.00,FEW,BKN,0.00,0.0,WeatherDisplay:10.37,2013-03-24 06:30:00,
2013-03-24 02:35:00,29.1,21.9,29.84,West,266,0.2,2.1,74,0.00,FEW,BKN,0.00,0.0,WeatherDisplay:10.37,2013-03-24 06:35:00,
2013-03-24 02:40:00,29.1,22.2,29.83,SW,231,0.0,0.0,75,0.00,FEW,BKN,0.00,0.0,WeatherDisplay:10.37,2013-03-24 06:40:00,
2013-03-24 02:45:00,28.9,22.3,29.83,SW,218,0.0,0.0,76,0.00,FEW,BKN,0.00,0.0,WeatherDisplay:10.37,2013-03-24 06:45:00,
2013-03-24 02:50:00,28.8,22.1,29.83,SSW,206,0.0,0.0,76,0.00,FEW,BKN,0.00,0.0,WeatherDisplay:10.37,2013-03-24 06:50:00,
2013-03-24 02:55:00,28.2,21.6,29.83,SSW,207,0.0,0.0,76,0.00,FEW,BKN,0.00,0.0,WeatherDisplay:10.37,2013-03-24 06:55:00,
2013-03-24 03:00:00,27.9,21.3,29.82,West,269,0.0,0.0,76,0.00,FEW,BKN,0.00,0.0,WeatherDisplay:10.37,2013-03-24 07:00:00,
2013-03-24 03:05:00,27.9,21.9,29.82,SW,218,0.0,0.0,78,0.00,FEW,BKN,0.00,0.0,WeatherDisplay:10.37,2013-03-24 07:05:00,
2013-03-24 03:10:00,27.5,21.5,29.81,SSW,208,0.5,1.5,78,0.00,FEW,BKN,0.00,0.0,WeatherDisplay:10.37,2013-03-24 07:10:00,
2013-03-24 03:15:00,27.7,21.7,29.82,SSW,209,0.9,2.3,78,0.00,FEW,BKN,0.00,0.0,WeatherDisplay:10.37,2013-03-24 07:15:00,
2013-03-24 03:20:00,27.7,22.3,29.83,SSW,210,2.6,4.6,80,0.00,FEW,BKN,0.00,0.0,WeatherDisplay:10.37,2013-03-24 07:20:00,
2013-03-24 03:25:00,27.7,22.3,29.83,SSW,210,3.2,4.6,80,0.00,FEW,BKN,0.00,0.0,WeatherDisplay:10.37,2013-03-24 07:25:00,
2013-03-24 03:30:00,27.3,22.0,29.83,SSW,213,0.8,1.1,80,0.00,FEW,BKN,0.00,0.0,WeatherDisplay:10.37,2013-03-24 07:30:00,
2013-03-24 03:35:00,27.1,21.8,29.83,SSW,207,2.9,4.6,80,0.00,FEW,BKN,0.00,0.0,WeatherDisplay:10.37,2013-03-24 07:35:00,
2013-03-24 03:40:00,27.1,22.1,29.83,SSW,208,2.1,3.5,81,0.00,FEW,BKN,0.00,0.0,WeatherDisplay:10.37,2013-03-24 07:40:00,
2013-03-24 03:45:00,27.0,21.9,29.83,SSW,199,2.6,3.5,81,0.00,FEW,BKN,0.00,0.0,WeatherDisplay:10.37,2013-03-24 07:45:00,
2013-03-24 03:50:00,27.3,22.5,29.83,SSW,203,2.8,3.5,82,0.00,FEW,BKN,0.00,0.0,WeatherDisplay:10.37,2013-03-24 07:50:00,
2013-03-24 03:55:00,27.1,22.4,29.81,SW,219,1.2,4.6,82,0.00,FEW,BKN,0.00,0.0,WeatherDisplay:10.37,2013-03-24 07:55:00,
2013-03-24 04:00:00,27.0,22.2,29.81,SSW,211,0.0,0.0,82,0.00,FEW,BKN,0.00,0.0,WeatherDisplay:10.37,2013-03-24 08:00:00,
2013-03-24 04:05:00,26.8,22.3,29.81,SSW,202,1.2,3.5,83,0.00,FEW,BKN,0.00,0.0,WeatherDisplay:10.37,2013-03-24 08:05:00,
2013-03-24 04:10:00,26.8,22.6,29.82,SSW,205,2.1,4.6,84,0.00,FEW,BKN,0.00,0.0,WeatherDisplay:10.37,2013-03-24 08:10:00,
2013-03-24 04:15:00,26.6,22.4,29.83,SSW,211,0.9,2.3,84,0.00,FEW,BKN,0.00,0.0,WeatherDisplay:10.37,2013-03-24 08:15:00,
2013-03-24 04:20:00,26.4,22.2,29.83,SSW,200,2.5,4.6,84,0.00,FEW,BKN,0.00,0.0,WeatherDisplay:10.37,2013-03-24 08:20:00,
2013-03-24 04:25:00,26.8,22.9,29.83,SW,214,0.9,2.3,85,0.00,FEW,BKN,0.00,0.0,WeatherDisplay:10.37,2013-03-24 08:25:00,
2013-03-24 04:30:00,26.4,22.8,29.83,SSW,204,2.8,3.5,86,0.00,FEW,BKN,0.00,0.0,WeatherDisplay:10.37,2013-03-24 08:30:00,
2013-03-24 04:35:00,26.6,23.3,29.84,SW,218,2.5,3.5,87,0.00,FEW,BKN,0.00,0.0,WeatherDisplay:10.37,2013-03-24 08:35:00,
2013-03-24 04:40:00,26.4,22.8,29.84,SSW,205,1.7,3.5,86,0.00,FEW,BKN,0.00,0.0,WeatherDisplay:10.37,2013-03-24 08:40:00,
2013-03-24 04:45:00,26.4,23.1,29.83,SSW,210,3.0,4.6,87,0.00,FEW,BKN,0.00,0.0,WeatherDisplay:10.37,2013-03-24 08:45:00,
2013-03-24 04:50:00,26.4,23.1,29.84,SSW,213,2.5,4.4,87,0.00,FEW,BKN,0.00,0.0,WeatherDisplay:10.37,2013-03-24 08:50:00,
2013-03-24 04:55:00,26.1,23.0,29.84,SW,229,4.0,4.6,88,0.00,FEW,BKN,0.00,0.0,WeatherDisplay:10.37,2013-03-24 08:55:00,
2013-03-24 05:00:00,26.2,23.2,29.84,SSW,210,3.6,5.8,88,0.00,FEW,BKN,0.00,0.0,WeatherDisplay:10.37,2013-03-24 09:00:00,
2013-03-24 05:05:00,26.1,23.0,29.84,SSW,213,3.4,4.6,88,0.00,FEW,BKN,0.00,0.0,WeatherDisplay:10.37,2013-03-24 09:05:00,
2013-03-24 05:10:00,26.1,23.3,29.84,SSW,200,3.7,4.6,89,0.00,FEW,BKN,0.00,0.0,WeatherDisplay:10.37,2013-03-24 09:10:00,
2013-03-24 05:15:00,26.1,23.5,29.84,SSW,211,4.0,5.8,90,0.00,FEW,BKN,0.00,0.0,WeatherDisplay:10.37,2013-03-24 09:15:00,
2013-03-24 05:20:00,26.1,23.5,29.84,SSW,192,3.8,5.8,90,0.00,FEW,BKN,0.00,0.0,WeatherDisplay:10.37,2013-03-24 09:20:00,
2013-03-24 05:25:00,26.1,23.3,29.84,SSW,212,2.2,3.9,89,0.00,FEW,BKN,0.00,0.0,WeatherDisplay:10.37,2013-03-24 09:25:00,
2013-03-24 05:30:00,25.9,23.4,29.84,SSW,208,3.0,4.6,90,0.00,FEW,BKN,0.00,0.0,WeatherDisplay:10.37,2013-03-24 09:30:00,
2013-03-24 05:35:00,25.7,22.9,29.84,SSW,206,2.2,3.5,89,0.00,FEW,BKN,0.00,0.0,WeatherDisplay:10.37,2013-03-24 09:35:00,
2013-03-24 05:40:00,25.5,23.0,29.84,SSW,210,1.9,3.5,90,0.00,FEW,BKN,0.00,0.0,WeatherDisplay:10.37,2013-03-24 09:40:00,
2013-03-24 05:45:00,25.3,22.8,29.83,SSW,213,1.4,3.5,90,0.00,FEW,BKN,0.00,0.0,WeatherDisplay:10.37,2013-03-24 09:45:00,
2013-03-24 05:50:00,25.2,22.6,29.83,SSW,207,0.5,2.0,90,0.00,FEW,BKN,0.00,0.0,WeatherDisplay:10.37,2013-03-24 09:50:00,
2013-03-24 05:55:00,25.2,22.6,29.83,SSW,205,0.0,1.1,90,0.00,FEW,BKN,0.00,0.0,WeatherDisplay:10.37,2013-03-24 09:55:00,
2013-03-24 06:00:00,25.2,22.6,29.83,SSW,210,1.2,3.5,90,0.00,FEW,BKN,0.00,0.0,WeatherDisplay:10.37,2013-03-24 10:00:00,
2013-03-24 06:05:00,24.8,22.3,29.83,SSW,195,1.5,3.5,90,0.00,FEW,BKN,0.00,0.0,WeatherDisplay:10.37,2013-03-24 10:05:00,
2013-03-24 06:10:00,25.0,22.7,29.84,SSW,205,2.1,4.6,91,0.00,FEW,BKN,0.00,0.0,WeatherDisplay:10.37,2013-03-24 10:10:00,
2013-03-24 06:15:00,25.0,23.0,29.84,SSW,205,3.8,5.8,92,0.00,FEW,BKN,0.00,0.0,WeatherDisplay:10.37,2013-03-24 10:15:00,
2013-03-24 06:20:00,25.2,23.2,29.84,SW,226,0.8,3.5,92,0.00,SCT,BKN,0.00,0.0,WeatherDisplay:10.37,2013-03-24 10:20:00,
2013-03-24 06:25:00,25.2,23.2,29.84,SW,221,1.4,3.5,92,0.00,SCT,BKN,0.00,0.0,WeatherDisplay:10.37,2013-03-24 10:25:00,
2013-03-24 06:30:00,25.0,23.0,29.84,SSW,208,1.7,2.3,92,0.00,SCT,BKN,0.00,0.0,WeatherDisplay:10.37,2013-03-24 10:30:00,
2013-03-24 06:35:00,25.2,23.4,29.84,SW,214,3.2,4.6,93,0.00,SCT,BKN,0.00,0.0,WeatherDisplay:10.37,2013-03-24 10:35:00,
2013-03-24 06:40:00,25.2,23.4,29.84,SSW,194,3.4,4.6,93,0.00,SCT,BKN,0.00,0.0,WeatherDisplay:10.37,2013-03-24 10:40:00,
2013-03-24 06:45:00,25.0,23.0,29.84,SSW,194,0.5,3.5,92,0.00,SCT,BKN,0.00,0.0,WeatherDisplay:10.37,2013-03-24 10:45:00,
2013-03-24 06:50:00,25.0,23.0,29.84,SSW,210,0.3,1.1,92,0.00,SCT,BKN,0.00,0.0,WeatherDisplay:10.37,2013-03-24 10:50:00,
2013-03-24 06:55:00,25.0,23.0,29.85,South,190,0.0,0.0,92,0.00,SCT,BKN,0.00,0.0,WeatherDisplay:10.37,2013-03-24 10:55:00,
2013-03-24 07:00:00,25.2,23.4,29.85,SSW,205,1.4,2.3,93,0.00,SCT,BKN,0.00,0.0,WeatherDisplay:10.37,2013-03-24 11:00:00,
2013-03-24 07:05:00,25.0,23.0,29.84,SSW,197,2.6,4.6,92,0.00,SCT,BKN,0.00,0.0,WeatherDisplay:10.37,2013-03-24 11:05:00,
2013-03-24 07:10:00,25.2,23.2,29.84,West,276,0.0,0.0,92,0.00,SCT,BKN,0.00,0.0,WeatherDisplay:10.37,2013-03-24 11:10:00,
2013-03-24 07:15:00,25.5,24.0,29.84,SSW,205,0.6,1.4,94,0.00,SCT,BKN,0.00,0.0,WeatherDisplay:10.37,2013-03-24 11:15:00,
2013-03-24 07:20:00,25.5,23.8,29.84,SSW,210,1.3,3.5,93,0.00,FEW,BKN,0.00,0.0,WeatherDisplay:10.37,2013-03-24 11:20:00,
2013-03-24 07:25:00,25.3,23.6,29.84,SSW,203,1.5,3.0,93,0.00,FEW,BKN,0.00,0.0,WeatherDisplay:10.37,2013-03-24 11:25:00,
2013-03-24 07:30:00,25.5,23.8,29.84,SSW,210,1.7,2.3,93,0.00,FEW,BKN,0.00,0.0,WeatherDisplay:10.37,2013-03-24 11:30:00,
2013-03-24 07:35:00,25.3,23.6,29.84,SSW,210,1.9,3.5,93,0.00,FEW,BKN,0.00,0.0,WeatherDisplay:10.37,2013-03-24 11:35:00,
2013-03-24 07:40:00,25.5,24.0,29.84,SSW,210,3.0,4.6,94,0.00,FEW,BKN,0.00,0.0,WeatherDisplay:10.37,2013-03-24 11:40:00,
2013-03-24 07:45:00,25.5,24.0,29.84,SSW,197,2.3,5.8,94,0.00,FEW,BKN,0.00,0.0,WeatherDisplay:10.37,2013-03-24 11:45:00,
2013-03-24 07:50:00,25.9,24.1,29.85,SSW,211,0.9,2.0,93,0.00,FEW,BKN,0.00,0.0,WeatherDisplay:10.37,2013-03-24 11:50:00,
2013-03-24 07:55:00,26.1,24.3,29.85,SSW,211,2.8,3.5,93,0.00,FEW,BKN,0.00,0.0,WeatherDisplay:10.37,2013-03-24 11:55:00,
2013-03-24 08:00:00,26.4,24.7,29.85,SSW,203,3.1,5.3,93,0.00,FEW,BKN,0.00,0.0,WeatherDisplay:10.37,2013-03-24 12:00:00,
2013-03-24 08:05:00,26.8,25.0,29.85,SSW,204,3.1,4.6,93,0.00,FEW,BKN,0.00,0.0,WeatherDisplay:10.37,2013-03-24 12:05:00,
2013-03-24 08:10:00,27.3,25.3,29.85,SW,218,3.0,5.8,92,0.00,FEW,BKN,0.00,0.0,WeatherDisplay:10.37,2013-03-24 12:10:00,
2013-03-24 08:15:00,27.1,24.9,29.85,SSW,213,3.4,4.6,91,0.00,FEW,BKN,0.00,157.3,WeatherDisplay:10.37,2013-03-24 12:15:00,
2013-03-24 08:20:00,27.0,24.7,29.85,SSW,211,3.8,5.3,91,0.00,FEW,BKN,0.00,318.4,WeatherDisplay:10.37,2013-03-24 12:20:00,
2013-03-24 08:25:00,27.7,25.4,29.85,SW,216,3.5,5.9,91,0.00,FEW,BKN,0.00,351.0,WeatherDisplay:10.37,2013-03-24 12:25:00,
2013-03-24 08:30:00,27.9,25.3,29.85,SW,224,2.6,4.6,90,0.00,FEW,BKN,0.00,435.4,WeatherDisplay:10.37,2013-03-24 12:30:00,
2013-03-24 08:35:00,28.4,25.8,29.84,SSW,211,3.6,5.8,90,0.00,FEW,BKN,0.00,451.7,WeatherDisplay:10.37,2013-03-24 12:35:00,
2013-03-24 08:40:00,28.4,25.8,29.84,SW,214,2.7,5.8,90,0.00,FEW,BKN,0.00,461.3,WeatherDisplay:10.37,2013-03-24 12:40:00,
2013-03-24 08:45:00,28.8,25.9,29.84,SSW,210,2.8,4.6,89,0.00,FEW,BKN,0.00,278.1,WeatherDisplay:10.37,2013-03-24 12:45:00,
2013-03-24 08:50:00,29.1,26.0,29.84,SW,221,2.7,3.5,88,0.00,FEW,BKN,0.00,435.4,WeatherDisplay:10.37,2013-03-24 12:50:00,
2013-03-24 08:56:00,29.1,26.0,29.83,SSW,210,1.3,4.6,88,0.00,FEW,BKN,0.00,407.6,WeatherDisplay:10.37,2013-03-24 12:56:00,
2013-03-24 09:01:00,29.5,26.4,29.84,SSW,210,1.8,3.5,88,0.00,FEW,BKN,0.00,115.1,WeatherDisplay:10.37,2013-03-24 13:01:00,
2013-03-24 09:07:00,29.7,26.5,29.84,SW,232,2.5,3.5,88,0.00,FEW,BKN,0.00,112.2,WeatherDisplay:10.37,2013-03-24 13:07:00,
2013-03-24 09:12:00,29.8,26.4,29.84,WNW,299,1.4,3.0,87,0.00,FEW,BKN,0.00,118.9,WeatherDisplay:10.37,2013-03-24 13:12:00,
2013-03-24 09:17:00,30.2,26.5,29.84,SSW,211,1.4,3.5,86,0.00,BKN,,0.00,117.0,WeatherDisplay:10.37,2013-03-24 13:17:00,
2013-03-24 09:22:00,31.5,27.8,29.84,SSW,206,2.4,3.5,86,0.00,BKN,,0.00,121.8,WeatherDisplay:10.37,2013-03-24 13:22:00,
2013-03-24 09:27:00,31.6,27.9,29.83,WNW,297,1.6,5.8,86,0.00,BKN,,0.00,126.6,WeatherDisplay:10.37,2013-03-24 13:27:00,
2013-03-24 09:32:00,32.2,27.9,29.84,WNW,288,3.0,5.8,84,0.00,BKN,,0.00,131.4,WeatherDisplay:10.37,2013-03-24 13:32:00,
2013-03-24 09:37:00,32.5,28.0,29.83,South,186,0.3,3.5,83,0.00,BKN,,0.00,142.9,WeatherDisplay:10.37,2013-03-24 13:37:00,
2013-03-24 09:42:00,33.3,28.4,29.83,WNW,289,2.3,4.6,82,0.00,BKN,,0.00,206.2,WeatherDisplay:10.37,2013-03-24 13:42:00,
2013-03-24 09:47:00,33.6,28.4,29.83,NW,304,3.8,5.8,81,0.00,BKN,,0.00,175.5,WeatherDisplay:10.37,2013-03-24 13:47:00,
2013-03-24 09:52:00,33.4,27.3,29.83,WSW,253,4.2,6.9,78,0.00,BKN,,0.00,375.0,WeatherDisplay:10.37,2013-03-24 13:52:00,
2013-03-24 09:57:00,34.0,28.2,29.83,NW,309,2.0,3.5,79,0.00,BKN,,0.00,653.1,WeatherDisplay:10.37,2013-03-24 13:57:00,
2013-03-24 10:02:00,34.5,27.7,29.83,WNW,288,3.7,6.1,76,0.00,BKN,,0.00,704.9,WeatherDisplay:10.37,2013-03-24 14:02:00,
2013-03-24 10:07:00,34.9,27.4,29.83,NW,305,4.3,5.8,74,0.00,BKN,,0.00,723.1,WeatherDisplay:10.37,2013-03-24 14:07:00,
2013-03-24 10:12:00,35.4,28.0,29.83,WNW,296,0.5,3.7,74,0.00,BKN,,0.00,676.1,WeatherDisplay:10.37,2013-03-24 14:12:00,
2013-03-24 10:17:00,35.2,27.4,29.83,WSW,253,2.9,4.6,73,0.00,BKN,,0.00,714.5,WeatherDisplay:10.37,2013-03-24 14:17:00,
2013-03-24 10:22:00,35.8,28.6,29.83,WNW,291,1.3,5.3,75,0.00,BKN,,0.00,716.4,WeatherDisplay:10.37,2013-03-24 14:22:00,
2013-03-24 10:27:00,36.1,28.3,29.83,West,266,0.0,0.0,73,0.00,BKN,,0.00,718.3,WeatherDisplay:10.37,2013-03-24 14:27:00,
2013-03-24 10:32:00,37.0,28.5,29.83,SSW,208,1.3,4.0,71,0.00,BKN,,0.00,789.3,WeatherDisplay:10.37,2013-03-24 14:32:00,
2013-03-24 10:37:00,37.0,27.8,29.83,WNW,291,1.6,4.6,69,0.00,BKN,,0.00,840.1,WeatherDisplay:10.37,2013-03-24 14:37:00,
2013-03-24 10:42:00,38.7,29.7,29.83,SSW,200,0.0,0.0,70,0.00,BKN,,0.00,880.4,WeatherDisplay:10.37,2013-03-24 14:42:00,
2013-03-24 10:47:00,39.0,27.5,29.83,South,188,1.4,4.6,63,0.00,BKN,,0.00,859.3,WeatherDisplay:10.37,2013-03-24 14:47:00,
2013-03-24 10:52:00,39.0,27.5,29.83,WNW,300,4.9,5.8,63,0.00,BKN,,0.00,632.0,WeatherDisplay:10.37,2013-03-24 14:52:00,
2013-03-24 10:57:00,38.5,28.5,29.82,NNW,332,2.4,4.6,67,0.00,BKN,,0.00,285.8,WeatherDisplay:10.37,2013-03-24 14:57:00,
2013-03-24 11:02:00,37.9,26.5,29.83,NW,322,4.1,5.8,63,0.00,BKN,,0.00,292.5,WeatherDisplay:10.37,2013-03-24 15:02:00,
2013-03-24 11:07:00,37.2,21.6,29.83,SW,234,0.0,0.0,53,0.00,BKN,,0.00,337.6,WeatherDisplay:10.37,2013-03-24 15:07:00,
2013-03-24 11:12:00,37.9,25.3,29.81,North,354,0.3,4.6,60,0.00,BKN,,0.00,334.7,WeatherDisplay:10.37,2013-03-24 15:12:00,
2013-03-24 11:17:00,37.2,20.3,29.81,WNW,282,2.4,4.6,50,0.00,BKN,,0.00,351.0,WeatherDisplay:10.37,2013-03-24 15:17:00,
2013-03-24 11:22:00,37.9,23.6,29.81,NW,318,2.4,4.6,56,0.00,BKN,,0.00,516.9,WeatherDisplay:10.37,2013-03-24 15:22:00,
2013-03-24 11:27:00,38.8,21.3,29.81,South,171,0.3,6.9,49,0.00,BKN,,0.00,563.9,WeatherDisplay:10.37,2013-03-24 15:27:00,
2013-03-24 11:32:00,38.8,21.3,29.80,WNW,291,5.1,6.9,49,0.00,BKN,,0.00,913.0,WeatherDisplay:10.37,2013-03-24 15:32:00,
2013-03-24 11:37:00,40.8,23.6,29.80,NW,315,0.0,0.0,50,0.00,BKN,,0.00,456.5,WeatherDisplay:10.37,2013-03-24 15:37:00,
2013-03-24 11:42:00,41.4,21.6,29.80,North,10,1.3,4.6,45,0.00,BKN,,0.00,388.4,WeatherDisplay:10.37,2013-03-24 15:42:00,
2013-03-24 11:47:00,42.1,22.8,29.80,North,11,2.8,4.6,46,0.00,BKN,,0.00,454.6,WeatherDisplay:10.37,2013-03-24 15:47:00,
2013-03-24 11:52:00,43.0,22.5,29.78,NNE,19,1.6,4.6,44,0.00,BKN,,0.00,470.9,WeatherDisplay:10.37,2013-03-24 15:52:00,
2013-03-24 11:57:00,44.8,25.8,29.78,NW,313,0.0,1.1,47,0.00,BKN,,0.00,880.4,WeatherDisplay:10.37,2013-03-24 15:57:00,
2013-03-24 12:02:00,45.1,24.5,29.78,ESE,110,1.5,2.3,44,0.00,BKN,,0.00,875.6,WeatherDisplay:10.37,2013-03-24 16:02:00,
2013-03-24 12:07:00,46.2,26.6,29.78,NE,44,1.8,2.5,46,0.00,BKN,,0.00,723.1,WeatherDisplay:10.37,2013-03-24 16:07:00,
2013-03-24 12:12:00,46.2,24.4,29.77,NNE,20,2.9,6.9,42,0.00,BKN,,0.00,484.3,WeatherDisplay:10.37,2013-03-24 16:12:00,
2013-03-24 12:17:00,45.3,23.5,29.76,NE,39,4.1,6.1,42,0.00,BKN,,0.00,542.8,WeatherDisplay:10.37,2013-03-24 16:17:00,
2013-03-24 12:22:00,45.1,23.9,29.76,NE,36,5.4,5.8,43,0.00,BKN,,0.00,610.9,WeatherDisplay:10.37,2013-03-24 16:22:00,
2013-03-24 12:27:00,44.1,22.4,29.76,NNE,20,5.6,8.1,42,0.00,BKN,,0.00,477.6,WeatherDisplay:10.37,2013-03-24 16:27:00,
2013-03-24 12:32:00,43.7,23.7,29.76,NNE,29,3.6,6.1,45,0.00,BKN,,0.00,449.8,WeatherDisplay:10.37,2013-03-24 16:32:00,
2013-03-24 12:37:00,43.5,23.6,29.76,NNE,31,4.3,6.9,45,0.00,BKN,,0.00,482.4,WeatherDisplay:10.37,2013-03-24 16:37:00,
2013-03-24 12:43:00,43.9,24.9,29.76,NNW,328,2.6,5.8,47,0.00,BKN,,0.00,555.3,WeatherDisplay:10.37,2013-03-24 16:43:00,
2013-03-24 12:48:00,43.5,24.6,29.76,NW,323,3.6,6.0,47,0.00,BKN,,0.00,430.6,WeatherDisplay:10.37,2013-03-24 16:48:00,
2013-03-24 12:53:00,43.3,24.9,29.76,NNE,15,2.6,5.8,48,0.00,BKN,,0.00,445.0,WeatherDisplay:10.37,2013-03-24 16:53:00,
2013-03-24 12:58:00,42.6,24.3,29.76,NNW,332,4.0,5.8,48,0.00,BKN,,0.00,492.0,WeatherDisplay:10.37,2013-03-24 16:58:00,
2013-03-24 13:03:00,43.5,26.1,29.76,NW,305,0.6,4.0,50,0.00,BKN,,0.00,492.0,WeatherDisplay:10.37,2013-03-24 17:03:00,
2013-03-24 13:08:00,42.8,24.4,29.76,NNW,336,3.4,6.9,48,0.00,BKN,,0.00,445.0,WeatherDisplay:10.37,2013-03-24 17:08:00,
2013-03-24 13:13:00,42.4,23.6,29.76,NW,322,2.2,3.5,47,0.00,BKN,,0.00,559.1,WeatherDisplay:10.37,2013-03-24 17:13:00,
2013-03-24 13:18:00,42.6,24.8,29.76,NE,54,1.1,3.5,49,0.00,BKN,,0.00,521.7,WeatherDisplay:10.37,2013-03-24 17:18:00,
2013-03-24 13:23:00,42.6,23.3,29.75,NE,42,4.1,9.1,46,0.00,BKN,,0.00,651.2,WeatherDisplay:10.37,2013-03-24 17:23:00,
2013-03-24 13:28:00,42.6,23.8,29.75,West,260,0.1,2.3,47,0.00,BKN,,0.00,515.0,WeatherDisplay:10.37,2013-03-24 17:28:00,
2013-03-24 13:33:00,43.0,24.6,29.74,NE,41,2.5,4.6,48,0.00,BKN,,0.00,482.4,WeatherDisplay:10.37,2013-03-24 17:33:00,
2013-03-24 13:38:00,43.7,24.2,29.74,NE,36,4.0,6.9,46,0.00,BKN,,0.00,442.1,WeatherDisplay:10.37,2013-03-24 17:38:00,
2013-03-24 13:43:00,43.5,24.6,29.74,NNW,331,0.1,1.1,47,0.00,BKN,,0.00,463.2,WeatherDisplay:10.37,2013-03-24 17:43:00,
2013-03-24 13:48:00,44.8,25.8,29.73,NNE,31,1.0,3.5,47,0.00,BKN,,0.00,779.7,WeatherDisplay:10.37,2013-03-24 17:48:00,
2013-03-24 13:53:00,43.9,23.9,29.73,NE,46,0.7,3.5,45,0.00,BKN,,0.00,810.4,WeatherDisplay:10.37,2013-03-24 17:53:00,
2013-03-24 13:58:00,44.2,24.2,29.73,NE,41,3.4,4.6,45,0.00,BKN,,0.00,709.7,WeatherDisplay:10.37,2013-03-24 17:58:00,
2013-03-24 14:03:00,44.1,23.5,29.72,NNE,28,2.0,4.6,44,0.00,BKN,,0.00,566.8,WeatherDisplay:10.37,2013-03-24 18:03:00,
2013-03-24 14:08:00,44.8,25.2,29.72,NNE,25,2.0,5.6,46,0.00,BKN,,0.00,796.0,WeatherDisplay:10.37,2013-03-24 18:08:00,
2013-03-24 14:13:00,46.0,25.9,29.72,ENE,77,2.7,6.9,45,0.00,BKN,,0.00,493.9,WeatherDisplay:10.37,2013-03-24 18:13:00,
2013-03-24 14:18:00,46.0,24.8,29.72,NNE,25,2.9,5.8,43,0.00,BKN,,0.00,563.9,WeatherDisplay:10.37,2013-03-24 18:18:00,
2013-03-24 14:23:00,45.5,23.7,29.71,NE,42,4.4,5.8,42,0.00,BKN,,0.00,601.3,WeatherDisplay:10.37,2013-03-24 18:23:00,
2013-03-24 14:28:00,45.5,26.4,29.71,NNW,335,1.2,2.3,47,0.00,BKN,,0.00,470.9,WeatherDisplay:10.37,2013-03-24 18:28:00,
2013-03-24 14:33:00,45.5,25.4,29.70,NNE,17,3.9,5.8,45,0.00,BKN,,0.00,437.3,WeatherDisplay:10.37,2013-03-24 18:33:00,
2013-03-24 14:38:00,45.3,26.3,29.69,North,5,0.3,1.1,47,0.00,BKN,,0.00,470.9,WeatherDisplay:10.37,2013-03-24 18:38:00,
2013-03-24 14:43:00,45.3,24.7,29.69,NNW,327,3.1,5.8,44,0.00,BKN,,0.00,552.4,WeatherDisplay:10.37,2013-03-24 18:43:00,
2013-03-24 14:48:00,45.9,25.7,29.69,NNE,29,5.4,8.1,45,0.00,BKN,,0.00,393.2,WeatherDisplay:10.37,2013-03-24 18:48:00,
2013-03-24 14:53:00,44.4,25.9,29.70,NNE,18,4.8,5.8,48,0.00,BKN,,0.00,375.0,WeatherDisplay:10.37,2013-03-24 18:53:00,
2013-03-24 14:58:00,43.5,26.1,29.69,ENE,60,8.2,9.2,50,0.00,BKN,,0.00,437.3,WeatherDisplay:10.37,2013-03-24 18:58:00,
2013-03-24 15:03:00,43.0,26.1,29.69,NE,55,4.1,8.1,51,0.00,BKN,,0.00,365.4,WeatherDisplay:10.37,2013-03-24 19:03:00,
2013-03-24 15:08:00,43.0,26.1,29.69,NNE,23,5.7,8.1,51,0.00,BKN,,0.00,339.5,WeatherDisplay:10.37,2013-03-24 19:08:00,
2013-03-24 15:13:00,42.1,26.2,29.69,NNE,33,6.8,10.4,53,0.00,BKN,,0.00,375.0,WeatherDisplay:10.37,2013-03-24 19:13:00,
2013-03-24 15:18:00,42.1,25.7,29.69,North,354,5.2,8.1,52,0.00,BKN,,0.00,409.5,WeatherDisplay:10.37,2013-03-24 19:18:00,
2013-03-24 15:23:00,41.2,24.9,29.68,NE,49,8.1,12.7,52,0.00,BKN,,0.00,449.8,WeatherDisplay:10.37,2013-03-24 19:23:00,
2013-03-24 15:28:00,41.4,25.5,29.68,NE,41,7.2,9.8,53,0.00,BKN,,0.00,575.4,WeatherDisplay:10.37,2013-03-24 19:28:00,
2013-03-24 15:33:00,41.0,25.2,29.67,NNE,16,6.4,8.1,53,0.00,BKN,,0.00,339.5,WeatherDisplay:10.37,2013-03-24 19:33:00,
2013-03-24 15:38:00,41.5,26.6,29.67,NNE,25,6.4,9.3,55,0.00,BKN,,0.00,362.5,WeatherDisplay:10.37,2013-03-24 19:38:00,
2013-03-24 15:43:00,41.4,25.0,29.67,NNE,26,5.9,10.4,52,0.00,BKN,,0.00,435.4,WeatherDisplay:10.37,2013-03-24 19:43:00,
2013-03-24 15:48:00,41.0,25.6,29.67,NNE,17,6.7,9.4,54,0.00,BKN,,0.00,555.3,WeatherDisplay:10.37,2013-03-24 19:48:00,
2013-03-24 15:53:00,41.4,25.5,29.67,NE,49,5.8,8.1,53,0.00,BKN,,0.00,550.5,WeatherDisplay:10.37,2013-03-24 19:53:00,
2013-03-24 15:58:00,41.9,25.5,29.67,North,10,5.5,8.1,52,0.00,BKN,,0.00,557.2,WeatherDisplay:10.37,2013-03-24 19:58:00,
2013-03-24 16:03:00,42.4,26.0,29.67,NE,34,6.2,9.2,52,0.00,BKN,,0.00,583.1,WeatherDisplay:10.37,2013-03-24 20:03:00,
2013-03-24 16:08:00,42.6,26.2,29.67,North,8,3.1,4.6,52,0.00,BKN,,0.00,383.6,WeatherDisplay:10.37,2013-03-24 20:08:00,
2013-03-24 16:13:00,41.9,24.6,29.67,NNE,29,6.3,10.4,50,0.00,BKN,,0.00,353.9,WeatherDisplay:10.37,2013-03-24 20:13:00,
2013-03-24 16:18:00,41.2,24.4,29.67,NE,37,4.3,9.2,51,0.00,BKN,,0.00,416.2,WeatherDisplay:10.37,2013-03-24 20:18:00,
2013-03-24 16:23:00,41.2,24.4,29.67,NNE,29,4.1,5.8,51,0.00,BKN,,0.00,407.6,WeatherDisplay:10.37,2013-03-24 20:23:00,
2013-03-24 16:28:00,41.0,24.7,29.66,NE,47,4.6,8.1,52,0.00,BKN,,0.00,370.2,WeatherDisplay:10.37,2013-03-24 20:28:00,
2013-03-24 16:33:00,41.0,24.7,29.66,NNE,29,5.5,8.1,52,0.00,BKN,,0.00,329.9,WeatherDisplay:10.37,2013-03-24 20:33:00,
2013-03-24 16:38:00,41.4,25.5,29.66,NNE,25,6.0,10.2,53,0.00,BKN,,0.00,360.6,WeatherDisplay:10.37,2013-03-24 20:38:00,
2013-03-24 16:43:00,40.3,24.5,29.66,NNE,17,8.1,11.5,53,0.00,BKN,,0.00,329.9,WeatherDisplay:10.37,2013-03-24 20:43:00,
2013-03-24 16:48:00,40.6,25.7,29.66,NNE,18,7.4,9.2,55,0.00,BKN,,0.00,281.0,WeatherDisplay:10.37,2013-03-24 20:48:00,
2013-03-24 16:53:00,39.9,24.6,29.66,NNE,18,6.0,6.9,54,0.00,BKN,,0.00,281.0,WeatherDisplay:10.37,2013-03-24 20:53:00,
2013-03-24 16:58:00,39.2,23.9,29.65,NNE,33,7.4,9.2,54,0.00,BKN,,0.00,255.1,WeatherDisplay:10.37,2013-03-24 20:58:00,
2013-03-24 17:03:00,39.2,24.4,29.65,NNE,23,5.2,10.4,55,0.00,BKN,,0.00,240.7,WeatherDisplay:10.37,2013-03-24 21:03:00,
2013-03-24 17:08:00,39.0,24.2,29.65,NNE,18,8.4,9.2,55,0.00,BKN,,0.00,219.6,WeatherDisplay:10.37,2013-03-24 21:08:00,
2013-03-24 17:13:00,38.7,24.3,29.65,NE,51,7.5,10.4,56,0.00,BKN,,0.00,208.1,WeatherDisplay:10.37,2013-03-24 21:13:00,
2013-03-24 17:18:00,38.1,23.4,29.65,NNE,18,6.8,10.4,55,0.00,OVC,BKN,0.00,191.8,WeatherDisplay:10.37,2013-03-24 21:18:00,
2013-03-24 17:23:00,38.1,24.2,29.65,NNE,26,5.9,8.1,57,0.00,OVC,BKN,0.00,175.5,WeatherDisplay:10.37,2013-03-24 21:23:00,
2013-03-24 17:28:00,38.1,23.8,29.65,NE,40,6.2,8.1,56,0.00,OVC,BKN,0.00,157.3,WeatherDisplay:10.37,2013-03-24 21:28:00,
2013-03-24 17:33:00,38.1,24.2,29.65,NE,38,6.4,9.2,57,0.00,OVC,BKN,0.00,147.7,WeatherDisplay:10.37,2013-03-24 21:33:00,
2013-03-24 17:38:00,38.1,23.4,29.65,NE,39,5.6,10.4,55,0.00,OVC,BKN,0.00,138.1,WeatherDisplay:10.37,2013-03-24 21:38:00,
2013-03-24 17:43:00,37.9,23.6,29.65,NE,44,6.1,9.2,56,0.00,OVC,BKN,0.00,126.6,WeatherDisplay:10.37,2013-03-24 21:43:00,
2013-03-24 17:48:00,37.8,23.9,29.65,NE,46,6.4,9.2,57,0.00,OVC,BKN,0.00,118.9,WeatherDisplay:10.37,2013-03-24 21:48:00,
2013-03-24 17:53:00,37.2,23.4,29.65,NE,55,6.2,12.0,57,0.00,OVC,BKN,0.00,110.3,WeatherDisplay:10.37,2013-03-24 21:53:00,
2013-03-24 17:58:00,37.2,23.4,29.66,ENE,57,5.2,8.5,57,0.00,OVC,BKN,0.00,100.7,WeatherDisplay:10.37,2013-03-24 21:58:00,
2013-03-24 18:03:00,37.0,23.6,29.65,NNE,28,6.1,8.1,58,0.00,OVC,BKN,0.00,95.9,WeatherDisplay:10.37,2013-03-24 22:03:00,
2013-03-24 18:08:00,36.7,23.3,29.65,NE,52,7.6,9.3,58,0.00,OVC,BKN,0.00,89.2,WeatherDisplay:10.37,2013-03-24 22:08:00,
2013-03-24 18:13:00,36.3,22.5,29.65,NE,36,8.6,11.0,57,0.00,OVC,BKN,0.00,84.4,WeatherDisplay:10.37,2013-03-24 22:13:00,
2013-03-24 18:18:00,36.1,22.8,29.65,NNE,25,6.6,10.8,58,0.00,OVC,BKN,0.00,74.8,WeatherDisplay:10.37,2013-03-24 22:18:00,
2013-03-24 18:23:00,35.8,22.4,29.65,NNE,29,9.1,12.7,58,0.00,OVC,BKN,0.00,65.2,WeatherDisplay:10.37,2013-03-24 22:23:00,
2013-03-24 18:28:00,35.8,22.8,29.65,NNE,19,7.7,9.2,59,0.00,OVC,BKN,0.00,58.5,WeatherDisplay:10.37,2013-03-24 22:28:00,
2013-03-24 18:33:00,35.2,22.3,29.65,NE,44,10.1,13.0,59,0.00,OVC,BKN,0.00,56.6,WeatherDisplay:10.37,2013-03-24 22:33:00,
2013-03-24 18:38:00,35.2,22.3,29.65,NNE,22,7.6,11.5,59,0.00,OVC,BKN,0.00,48.9,WeatherDisplay:10.37,2013-03-24 22:38:00,
2013-03-24 18:43:00,35.2,22.3,29.64,NNE,30,5.5,9.2,59,0.00,OVC,BKN,0.00,44.1,WeatherDisplay:10.37,2013-03-24 22:43:00,
2013-03-24 18:48:00,35.2,21.9,29.65,NNE,23,8.1,11.5,58,0.00,OVC,BKN,0.00,37.4,WeatherDisplay:10.37,2013-03-24 22:48:00,
2013-03-24 18:53:00,34.9,21.6,29.65,NE,55,7.8,11.5,58,0.00,OVC,BKN,0.00,32.6,WeatherDisplay:10.37,2013-03-24 22:53:00,
2013-03-24 18:58:00,34.5,21.7,29.65,NE,42,8.9,13.8,59,0.00,OVC,BKN,0.00,25.9,WeatherDisplay:10.37,2013-03-24 22:58:00,
2013-03-24 19:03:00,35.1,22.6,29.64,NE,42,5.3,12.7,60,0.00,OVC,BKN,0.00,19.2,WeatherDisplay:10.37,2013-03-24 23:03:00,
2013-03-24 19:08:00,34.7,21.8,29.64,ENE,65,6.7,9.2,59,0.00,OVC,BKN,0.00,14.4,WeatherDisplay:10.37,2013-03-24 23:08:00,
2013-03-24 19:13:00,34.9,22.4,29.64,ENE,64,7.0,9.2,60,0.00,OVC,BKN,0.00,9.6,WeatherDisplay:10.37,2013-03-24 23:13:00,
2013-03-24 19:18:00,34.5,22.4,29.64,NE,44,5.2,10.4,61,0.00,OVC,BKN,0.00,6.7,WeatherDisplay:10.37,2013-03-24 23:18:00,
2013-03-24 19:23:00,34.5,22.8,29.63,NE,47,6.8,9.0,62,0.00,OVC,BKN,0.00,1.9,WeatherDisplay:10.37,2013-03-24 23:23:00,
2013-03-24 19:28:00,34.5,22.8,29.64,NE,50,5.9,8.1,62,0.00,OVC,BKN,0.00,1.9,WeatherDisplay:10.37,2013-03-24 23:28:00,
2013-03-24 19:33:00,34.3,22.7,29.64,NE,42,6.9,11.5,62,0.00,OVC,BKN,0.00,0.0,WeatherDisplay:10.37,2013-03-24 23:33:00,
2013-03-24 19:38:00,34.2,22.9,29.63,ENE,65,6.4,9.2,63,0.00,OVC,BKN,0.00,1.9,WeatherDisplay:10.37,2013-03-24 23:38:00,
2013-03-24 19:43:00,34.3,23.0,29.64,NNE,32,5.6,6.9,63,0.00,OVC,BKN,0.00,0.0,WeatherDisplay:10.37,2013-03-24 23:43:00,
2013-03-24 19:48:00,34.3,23.4,29.64,NE,39,5.6,8.1,64,0.00,OVC,BKN,0.00,0.0,WeatherDisplay:10.37,2013-03-24 23:48:00,
2013-03-24 19:53:00,34.0,23.1,29.63,NE,49,5.7,8.1,64,0.00,OVC,BKN,0.00,0.0,WeatherDisplay:10.37,2013-03-24 23:53:00,
2013-03-24 19:58:00,34.0,23.1,29.63,NE,42,5.2,6.9,64,0.00,OVC,BKN,0.00,0.0,WeatherDisplay:10.37,2013-03-24 23:58:00,
2013-03-24 20:03:00,34.0,23.4,29.63,NE,34,6.4,9.2,65,0.00,OVC,BKN,0.00,0.0,WeatherDisplay:10.37,2013-03-25 00:03:00,
2013-03-24 20:08:00,34.0,23.4,29.63,NE,41,5.9,9.2,65,0.00,OVC,BKN,0.00,0.0,WeatherDisplay:10.37,2013-03-25 00:08:00,
2013-03-24 20:13:00,34.0,23.4,29.63,ENE,63,4.3,8.1,65,0.00,OVC,BKN,0.00,0.0,WeatherDisplay:10.37,2013-03-25 00:13:00,
2013-03-24 20:18:00,33.6,23.5,29.63,NE,42,6.7,8.1,66,0.00,OVC,BKN,0.00,0.0,WeatherDisplay:10.37,2013-03-25 00:18:00,
2013-03-24 20:23:00,33.6,23.5,29.63,ENE,65,6.0,9.2,66,0.00,OVC,BKN,0.00,0.0,WeatherDisplay:10.37,2013-03-25 00:23:00,
2013-03-24 20:28:00,33.6,23.5,29.63,NE,49,6.3,9.2,66,0.00,OVC,BKN,0.00,0.0,WeatherDisplay:10.37,2013-03-25 00:28:00,
2013-03-24 20:33:00,33.6,23.8,29.63,NE,38,6.4,8.1,67,0.00,OVC,BKN,0.00,0.0,WeatherDisplay:10.37,2013-03-25 00:33:00,
2013-03-24 20:38:00,33.6,23.8,29.63,NE,47,4.6,5.8,67,0.00,OVC,BKN,0.00,0.0,WeatherDisplay:10.37,2013-03-25 00:38:00,
2013-03-24 20:43:00,33.6,23.8,29.63,NE,46,4.4,5.8,67,0.00,OVC,BKN,0.00,0.0,WeatherDisplay:10.37,2013-03-25 00:43:00,
2013-03-24 20:48:00,33.6,23.8,29.63,NE,51,4.2,5.8,67,0.00,OVC,BKN,0.00,0.0,WeatherDisplay:10.37,2013-03-25 00:48:00,
2013-03-24 20:53:00,33.6,23.8,29.63,NNE,33,3.5,4.6,67,0.00,OVC,BKN,0.00,0.0,WeatherDisplay:10.37,2013-03-25 00:53:00,
2013-03-24 20:58:00,33.8,24.0,29.63,NE,56,3.6,4.6,67,0.00,OVC,BKN,0.00,0.0,WeatherDisplay:10.37,2013-03-25 00:58:00,
2013-03-24 21:03:00,33.6,23.8,29.63,NNE,31,2.9,5.1,67,0.00,OVC,BKN,0.00,0.0,WeatherDisplay:10.37,2013-03-25 01:03:00,
2013-03-24 21:08:00,33.6,23.8,29.63,ENE,70,2.9,4.6,67,0.00,OVC,BKN,0.00,0.0,WeatherDisplay:10.37,2013-03-25 01:08:00,
2013-03-24 21:13:00,33.6,23.8,29.63,NNE,26,3.0,5.8,67,0.00,OVC,BKN,0.00,0.0,WeatherDisplay:10.37,2013-03-25 01:13:00,
2013-03-24 21:18:00,33.6,24.2,29.63,NE,45,3.4,6.9,68,0.00,OVC,BKN,0.00,0.0,WeatherDisplay:10.37,2013-03-25 01:18:00,
2013-03-24 21:23:00,33.6,24.2,29.63,ENE,59,4.0,8.1,68,0.00,OVC,BKN,0.00,0.0,WeatherDisplay:10.37,2013-03-25 01:23:00,
2013-03-24 21:28:00,33.6,24.2,29.63,NNE,29,4.7,8.1,68,0.00,OVC,BKN,0.00,0.0,WeatherDisplay:10.37,2013-03-25 01:28:00,
2013-03-24 21:33:00,33.1,23.7,29.63,ENE,67,6.8,11.5,68,0.00,OVC,BKN,0.00,0.0,WeatherDisplay:10.37,2013-03-25 01:33:00,
2013-03-24 21:38:00,33.4,24.4,29.62,NE,39,3.5,5.8,69,0.00,OVC,BKN,0.00,0.0,WeatherDisplay:10.37,2013-03-25 01:38:00,
2013-03-24 21:43:00,33.3,24.2,29.63,NE,47,6.2,8.1,69,0.00,OVC,BKN,0.00,0.0,WeatherDisplay:10.37,2013-03-25 01:43:00,
2013-03-24 21:48:00,33.3,24.2,29.63,NE,47,6.0,8.1,69,0.00,OVC,BKN,0.00,0.0,WeatherDisplay:10.37,2013-03-25 01:48:00,
2013-03-24 21:53:00,33.4,24.4,29.63,NE,38,2.6,6.9,69,0.00,OVC,BKN,0.00,0.0,WeatherDisplay:10.37,2013-03-25 01:53:00,
2013-03-24 21:58:00,33.3,24.2,29.63,NNE,18,2.9,6.9,69,0.00,OVC,BKN,0.00,0.0,WeatherDisplay:10.37,2013-03-25 01:58:00,
2013-03-24 22:03:00,33.4,24.4,29.63,NNE,29,1.9,4.6,69,0.00,OVC,BKN,0.00,0.0,WeatherDisplay:10.37,2013-03-25 02:03:00,
2013-03-24 22:08:00,33.4,24.4,29.63,NE,49,3.4,5.4,69,0.00,OVC,BKN,0.00,0.0,WeatherDisplay:10.37,2013-03-25 02:08:00,
2013-03-24 22:13:00,33.4,24.4,29.62,NE,55,4.7,9.2,69,0.00,OVC,BKN,0.00,0.0,WeatherDisplay:10.37,2013-03-25 02:13:00,
2013-03-24 22:18:00,33.4,24.4,29.62,NE,53,4.3,4.6,69,0.00,OVC,BKN,0.00,0.0,WeatherDisplay:10.37,2013-03-25 02:18:00,
2013-03-24 22:23:00,33.3,24.5,29.62,NE,52,6.0,8.1,70,0.00,OVC,BKN,0.00,0.0,WeatherDisplay:10.37,2013-03-25 02:23:00,
2013-03-24 22:28:00,33.1,24.4,29.62,NE,41,5.4,9.2,70,0.00,OVC,BKN,0.00,0.0,WeatherDisplay:10.37,2013-03-25 02:28:00,
2013-03-24 22:34:00,33.1,24.7,29.61,NE,54,4.7,9.2,71,0.00,OVC,BKN,0.00,0.0,WeatherDisplay:10.37,2013-03-25 02:34:00,
2013-03-24 22:39:00,33.1,25.0,29.61,ENE,58,5.4,9.2,72,0.00,OVC,BKN,0.00,0.0,WeatherDisplay:10.37,2013-03-25 02:39:00,
2013-03-24 22:44:00,33.1,25.0,29.61,NE,41,3.6,5.9,72,0.00,OVC,BKN,0.00,0.0,WeatherDisplay:10.37,2013-03-25 02:44:00,
2013-03-24 22:49:00,33.3,25.2,29.61,NE,49,5.0,8.1,72,0.00,OVC,BKN,0.00,0.0,WeatherDisplay:10.37,2013-03-25 02:49:00,
2013-03-24 22:54:00,33.3,25.2,29.61,NNE,23,3.8,5.8,72,0.00,OVC,BKN,0.00,0.0,WeatherDisplay:10.37,2013-03-25 02:54:00,
2013-03-24 22:59:00,33.4,25.4,29.61,NE,47,3.8,4.6,72,0.00,OVC,BKN,0.00,0.0,WeatherDisplay:10.37,2013-03-25 02:59:00,
2013-03-24 23:04:00,33.3,25.5,29.61,NE,35,3.2,5.8,73,0.00,OVC,BKN,0.00,0.0,WeatherDisplay:10.37,2013-03-25 03:04:00,
2013-03-24 23:09:00,33.3,25.5,29.61,NE,42,2.7,6.9,73,0.00,OVC,BKN,0.00,0.0,WeatherDisplay:10.37,2013-03-25 03:09:00,
2013-03-24 23:14:00,33.3,25.5,29.61,NE,43,5.0,6.9,73,0.00,OVC,BKN,0.00,0.0,WeatherDisplay:10.37,2013-03-25 03:14:00,
2013-03-24 23:19:00,33.1,25.4,29.61,NE,42,4.8,6.9,73,0.00,OVC,BKN,0.00,0.0,WeatherDisplay:10.37,2013-03-25 03:19:00,
2013-03-24 23:24:00,32.9,25.5,29.60,NE,39,6.5,6.9,74,0.00,OVC,BKN,0.00,0.0,WeatherDisplay:10.37,2013-03-25 03:24:00,
2013-03-24 23:29:00,33.1,26.0,29.60,NNE,28,6.3,8.1,75,0.00,OVC,BKN,0.00,0.0,WeatherDisplay:10.37,2013-03-25 03:29:00,
2013-03-24 23:34:00,33.1,26.0,29.60,NNE,24,5.8,8.1,75,0.00,OVC,BKN,0.00,0.0,WeatherDisplay:10.37,2013-03-25 03:34:00,
2013-03-24 23:39:00,33.1,26.0,29.59,NE,46,4.8,6.9,75,0.00,OVC,BKN,0.00,0.0,WeatherDisplay:10.37,2013-03-25 03:39:00,
2013-03-24 23:44:00,33.1,26.0,29.59,NE,52,4.8,5.8,75,0.00,OVC,BKN,0.00,0.0,WeatherDisplay:10.37,2013-03-25 03:44:00,
2013-03-24 23:49:00,33.1,26.0,29.59,NE,47,5.7,6.9,75,0.00,OVC,BKN,0.00,0.0,WeatherDisplay:10.37,2013-03-25 03:49:00,
2013-03-24 23:54:00,33.1,26.0,29.59,NE,38,6.1,9.2,75,0.00,OVC,BKN,0.00,0.0,WeatherDisplay:10.37,2013-03-25 03:54:00,
2013-03-24 23:59:00,33.4,26.4,29.59,NNE,20,6.0,8.1,75,0.00,OVC,BKN,0.00,0.0,WeatherDisplay:10.37,2013-03-25 03:59:00,